Flag Weather past 2 weeks in St. Petersburg, Florida, U.S.A.

Now
70 °F

Passing clouds.


Feels Like: 70 °F
Forecast: 68 / 75 °F
Wind: 7 mph from North

Location: Whitted Airport

Current Time: Oct 31, 2014 at 6:55:42 AM

Latest Report: Oct 31, 2014 at 5:53 AM


Visibility: 10 mi

Pressure: 29.84 "Hg

Humidity: 81%

Dew point: 64 °F

Location of St. PetersburgLocation

Historic Weather in St. Petersburg — Graph

°F

St. Petersburg temperature yesterday

Maximum temperature yesterday: 80 °F (at 3:53 PM)
Minimum temperature yesterday: 73 °F (at 3:53 AM)
Average temperature yesterday: 76 °F

Past Weeks' High & Low Weather Summary

 TemperatureHumidityPressure
High85 °F (Oct 20, 2:53 PM)88% (Oct 22, 3:53 AM)30.16 "Hg (Oct 22, 3:53 AM)
Low66 °F (Oct 26, 7:53 AM)37% (Oct 27, 3:53 PM)29.83 "Hg (Oct 31, 5:01 AM)
Average75 °F65%29.97 "Hg
* Reported Oct 16 5:53 AM — Oct 31 5:01 AM, St. Petersburg, Weather by CustomWeather, © 2014

Note: Actual official high and low records may vary slightly from our data, if they occured in-between our weather recording intervals... More about our weather records

Advertising

St. Petersburg weather history for previous 24 hours

 ConditionsComfort  
Time TempWeatherWind HumidityBarometerVisibility
5:01 AM
Oct 31
72 °FPassing clouds.9 mph78%29.83 "Hg10 mi
3:53 AM73 °FPassing clouds.7 mph88%29.83 "Hg10 mi
2:53 AM73 °FOvercast.6 mph88%29.85 "Hg10 mi
1:53 AM73 °FPartly cloudy.5 mph88%29.86 "Hg10 mi
12:53 AM74 °FPassing clouds.6 mph82%29.88 "Hg10 mi
11:53 PM
Oct 30
75 °FPassing clouds.5 mph76%29.89 "Hg10 mi
10:53 PM75 °FPassing clouds.5 mph76%29.89 "Hg10 mi
9:53 PM76 °FOvercast.6 mph72%29.89 "Hg10 mi
8:53 PM76 °FPassing clouds.5 mph74%29.88 "Hg10 mi
7:53 PM77 °FPassing clouds.5 mph71%29.87 "Hg10 mi
6:53 PM77 °FSunny.6 mph71%29.87 "Hg10 mi
5:53 PM79 °FOvercast.10 mph65%29.87 "Hg10 mi
4:53 PM80 °FPassing clouds.5 mph62%29.86 "Hg10 mi
3:53 PM80 °FPartly sunny.6 mph60%29.88 "Hg10 mi
2:53 PM79 °FPartly sunny.3 mph62%29.89 "Hg10 mi
1:53 PM79 °FScattered clouds.3 mph65%29.91 "Hg10 mi
12:53 PM78 °FSunny.No wind69%29.93 "Hg10 mi
11:53 AM77 °FSunny.5 mph74%29.97 "Hg10 mi
10:53 AM76 °FSunny.5 mph77%29.97 "Hg10 mi
9:53 AM76 °FSunny.5 mph77%29.97 "Hg10 mi
8:53 AM75 °FPartly sunny.3 mph79%29.96 "Hg10 mi
7:53 AM74 °FOvercast.5 mph76%29.95 "Hg10 mi
6:53 AM73 °FOvercast.No wind79%29.95 "Hg10 mi
Weather by CustomWeather, © 2014

See weather overviewHow to use our weather pages